Regional Weather Roundup
Issued by NWS Charleston, SC

Current Version | Previous Version | Graphics & Text | Print | Product List | Glossary On
Versions: 1 2 3 4 5 6 7 8 9 10 11 12 13 14 15 16 17 18 19 20 21 22 23 24 25 26 27 28 29 30 31 32 33 34 35 36 37 38 39 40 41 42 43 44 45 46 47 48 49 50
544
ASUS42 KCHS 121328
RWRCHS

REGIONAL WEATHER ROUNDUP
NATIONAL WEATHER SERVICE CHARLESTON SC
800 AM EST FRI FEB 12 2016

NOTE: "FAIR" INDICATES FEW OR NO CLOUDS BELOW 12,000 FEET WITH NO
SIGNIFICANT WEATHER AND/OR OBSTRUCTIONS TO VISIBILITY.

NOT ALL STATIONS ARE QUALITY CONTROLLED BY THE NATIONAL
WEATHER SERVICE. USE DATA WITH CAUTION...ESPECIALLY
DEWPOINT OBSERVATIONS.

SCZ027-030-031-034>040-042>050-121400-
...SOUTHEAST SOUTH CAROLINA...

CITY           SKY/WX    TMP DP  RH WIND       PRES   REMARKS
N CHARLESTON   CLOUDY    47  38  71 CALM      30.15F
WATERFRONT PRK   N/A     47  44  90 VRB2      30.00S
MOUNT PLEASANT CLOUDY    48  43  81 CALM      30.15F
JOHNS ISLAND   CLOUDY    48  45  87 CALM      30.15S
PINOPOLIS        N/A     45  37  76 VRB2      30.08S
MONCKS CORNER  CLOUDY    41  34  75 CALM      30.15F
SUMMERVILLE    PTSUNNY   41  37  87 CALM      30.16S
BEAUFORT MCAS  CLOUDY    46  44  93 CALM      30.15S
BEAUFORT ARPT  CLOUDY    46  46 100 CALM      30.14S FOG
HILTON HEAD IS CLOUDY    52  52 100 S7        30.15F
WALTERBORO     CLOUDY    45  39  81 CALM      30.16S
ALLENDALE      FAIR      41  37  87 CALM      30.14F

...SOUTHERN MIDLANDS AND PEE DEE...

CITY           SKY/WX    TMP DP  RH WIND       PRES   REMARKS
GEORGETOWN     CLOUDY    45  37  76 NE7       30.17S
KINGSTREE      PTSUNNY   39  30  70 NE3       30.18S
ORANGEBURG     PTCLDY    42  34  73 NE5       30.16S
BARNWELL       FAIR      41  37  87 CALM      30.15F
AIKEN          PTSUNNY   36  30  80 NE3       30.18S
MANNING        FAIR      41  32  70 NE5       30.17F
COLUMBIA       CLOUDY    37  26  64 NE6       30.18R WCI  32
SUMTER         MOCLDY    34  26  70 NE7       30.15F WCI  28
FLORENCE       MOCLDY    33  19  56 NE9       30.20F WCI  25
MYRTLE BEACH   NOT AVBL
N MYRTLE BEACH CLOUDY    39  25  57 NE10      30.19S WCI  32

$$

GAZ063-065-086>088-099>101-113>116-118-119-134>141-150-121400-
...SOUTHEAST GEORGIA...

CITY           SKY/WX    TMP DP  RH WIND       PRES   REMARKS
SAVANNAH ARPT  CLOUDY    52  50  93 S6        30.14F
HUNTER AAF     CLOUDY    53  53 100 S7        30.11F
FORT STEWART   CLOUDY    54  51  90 CALM      30.12S
STATESBORO     CLOUDY    46  44  92 CALM      30.14S FOG
SYLVANIA       CLOUDY    42  40  94 CALM      30.15S
CLAXTON        CLOUDY    46  46  99 CALM      30.14S

...CSRA...CENTRAL AND FAR SOUTHEAST GEORGIA...

CITY           SKY/WX    TMP DP  RH WIND       PRES   REMARKS
THOMSON        PTCLDY    37  35  92 CALM      30.19F
AUGUSTA-BUSH   CLOUDY    39  34  82 CALM      30.16S
AUGUSTA-DANIEL CLOUDY    40  30  67 N6        30.15F WCI  36
SWAINSBORO     CLOUDY    41  36  81 NE3       30.14S
VIDALIA        CLOUDY    50  48  93 CALM      30.13S
EASTMAN        CLOUDY    47  43  86 CALM      30.16R
HAZLEHURST     CLOUDY    59  56  92 SW7       30.12S
ALMA           CLOUDY    57  55  93 SW7       30.14F
WAYCROSS       CLOUDY    59  58  96 SW7       30.16S
JESUP          CLOUDY    59  57  94 SW6       30.15F
BAXLEY         CLOUDY    59  59 100 SW3       30.14S
BRUNSWICK      CLOUDY    55  54  94 SW9       30.18S
SAINT SIMONS   CLOUDY    54  53  97 SW8       30.17F

$$

SCZ027-028-034-036>038-045-046-048>050-GAZ119-141-121400-
...LAKE AND SUPPLEMENTAL COASTAL OBSERVATIONS...

STATION/POSITION TIME  TEMP    WIND        PRES    WAVE   SWELL
                       AIR SEA DIR/SP/G            HT/PER HT/PER/DIR
                 (UTC) (F)     (DEG/KT/KT) (MB)    (FT/S) (FT/S/D)
WINYAH BAY       1200   49      60/ 12     1020.0S
LAKE MURRAY      1200   34      40/  3/  5 1021.3F
ACE BASIN NERRS  1200   44        CALM     1021.0
FORT PULASKI     1300   51 49  190/  3/  5 1020.9F
SAPELO ISLAND    1300   53     200/  6     1021.0S

$$

ANZ835-935-AMZ111-154-330-350-352-354-370-450-454-472-121400-
...C-MAN AND BUOY OBSERVATIONS...

STATION/POSITION TIME  TEMP    WIND        PRES    WAVE   SWELL
                       AIR SEA DIR/SP/G            HT/PER HT/PER/DIR
                 (UTC) (F)     (DEG/KT/KT) (MB)    (FT/S) (FT/S/D)
BUOY 41004       1250   58 69  240/ 17/ 19 1020.3F   4/ 6   2/ 7
BUOY 41008       1250   54 52  210/ 14/ 16 1021.4F   3/ 5
FOLLY BEACH CMAN 1300   50      CALM  /  1 1021.0F
CAPERS NEARSHORE 1208   51      90/  8/ 12 1020.7S
FRIPP NEARSHORE  1200   52     220/  4/  6 1020.6R


STATION/POSITION TIME  TEMP    WIND        PRES    WAVE   SWELL
                       AIR SEA DIR/SP/G            HT/PER HT/PER/DIR
                 (UTC) (F)     (DEG/KT/KT) (MB)    (FT/S) (FT/S/D)
5E ST. MARYS GA  1221      56                N/A     2/ 5
FRYING PAN BUOY  1300   53 56   50/ 12/ 16 1021.3F
BUOY 41025       1250   42 70   40/ 12/ 16 1025.2R   3/ 7   3/ 40/ 7
CAPE LOOKOUT NC  NOT AVBL
BUOY 41002       1250   58 68  170/ 10/ 14   N/A     4/ 6   3/310/ 6
BUOY 41010       1220   67 72              1025.6R
ST AUGUSTINE FL  1300   52 56  210/  6/  8 1025.0R


$$




USA.gov is the U.S. government's official web portal to all federal, state and local government web resources and services.